Total_Precipitation_Accumulation
0.88 0.94 0.95 0.82 0.83 0.84 0.83 0.88 0.98 1.13 1.25 1.36 1.41 1.39 1.25 1.16 0.99 0.89 0.83 0.83 0.85 0.99 1.24 1.17 1.29 1.27 1.27 1.25 1.21 1.35 1.29 1.06 0.99 0.73 0.41 0.19 0.11 0.10 0.14 0.20 0.21 0.17 0.15
0.71 0.75 0.71 0.67 0.71 0.91 1.04 1.07 1.06 1.16 1.24 1.50 1.82 2.00 2.03 1.76 1.40 1.25 1.18 1.08 1.07 1.15 1.25 1.30 1.22 1.24 1.29 1.29 1.30 1.37 1.19 0.97 0.99 0.93 0.74 0.38 0.22 0.18 0.22 0.36 0.40 0.33 0.28
0.40 0.47 0.51 0.56 0.62 0.74 0.79 0.78 0.81 0.91 0.98 1.15 1.46 1.70 1.97 1.89 1.66 1.45 1.36 1.28 1.25 1.23 1.28 1.31 1.28 1.27 1.28 1.29 1.37 1.32 1.18 1.01 0.97 1.00 1.04 0.77 0.49 0.29 0.15 0.18 0.27 0.33 0.31
0.38 0.46 0.49 0.50 0.50 0.53 0.53 0.57 0.66 0.77 0.90 1.06 1.29 1.58 1.84 1.81 1.75 1.70 1.50 1.32 1.19 1.10 1.09 1.12 1.13 1.17 1.19 1.25 1.20 1.17 1.22 1.18 1.09 1.11 1.11 1.01 0.87 0.68 0.30 0.15 0.20 0.29 0.32
0.37 0.41 0.45 0.47 0.47 0.51 0.56 0.62 0.70 0.83 0.95 1.06 1.18 1.35 1.72 1.73 1.59 1.47 1.32 1.21 1.10 1.03 1.01 1.01 0.99 0.97 0.99 1.06 1.08 1.21 1.19 1.19 1.14 1.09 1.06 1.09 1.06 0.95 0.69 0.33 0.26 0.26 0.27
0.38 0.44 0.49 0.51 0.48 0.51 0.57 0.61 0.64 0.71 0.79 0.84 0.92 0.98 1.16 1.24 1.17 1.12 1.06 0.97 0.89 0.86 0.89 0.90 0.86 0.85 0.89 0.98 0.99 1.01 1.00 1.00 1.02 0.97 0.92 0.96 0.94 0.92 0.93 0.68 0.52 0.43 0.35
0.38 0.41 0.46 0.49 0.51 0.52 0.53 0.53 0.53 0.55 0.54 0.53 0.53 0.56 0.67 0.81 0.86 0.87 0.88 0.85 0.76 0.70 0.70 0.74 0.75 0.75 0.79 0.89 0.88 0.84 0.82 0.86 0.88 0.86 0.89 0.91 0.88 0.89 0.97 0.99 0.86 0.69 0.49
0.31 0.31 0.33 0.37 0.41 0.44 0.47 0.47 0.46 0.47 0.48 0.48 0.49 0.47 0.49 0.62 0.73 0.79 0.79 0.75 0.67 0.58 0.56 0.59 0.64 0.69 0.71 0.77 0.87 0.87 0.86 0.84 0.84 0.82 0.91 0.89 0.83 0.81 0.88 1.00 1.04 0.95 0.74
0.31 0.28 0.28 0.29 0.30 0.31 0.33 0.37 0.41 0.47 0.51 0.53 0.53 0.47 0.50 0.62 0.68 0.74 0.78 0.83 0.82 0.76 0.70 0.68 0.69 0.71 0.75 0.83 0.92 1.00 0.98 0.99 0.99 1.01 1.02 0.91 0.79 0.73 0.81 0.97 1.05 1.06 0.89
0.31 0.27 0.22 0.20 0.19 0.22 0.28 0.40 0.52 0.56 0.50 0.47 0.44 0.41 0.49 0.65 0.68 0.63 0.64 0.73 0.79 0.80 0.79 0.77 0.75 0.76 0.79 0.85 0.91 1.03 1.07 1.11 1.16 1.15 1.11 1.07 0.97 0.93 0.93 0.99 1.06 1.07 1.00
0.30 0.26 0.21 0.17 0.17 0.20 0.25 0.36 0.43 0.50 0.48 0.42 0.38 0.35 0.38 0.45 0.51 0.53 0.54 0.59 0.65 0.70 0.68 0.65 0.62 0.62 0.64 0.67 0.71 0.78 0.83 0.89 0.94 0.94 0.99 1.04 1.04 1.00 0.99 0.97 0.94 0.99 0.99
0.21 0.19 0.18 0.18 0.19 0.22 0.26 0.31 0.34 0.36 0.39 0.38 0.36 0.37 0.36 0.34 0.32 0.35 0.39 0.42 0.46 0.49 0.46 0.43 0.42 0.42 0.44 0.44 0.47 0.54 0.65 0.71 0.74 0.76 0.78 0.76 0.75 0.76 0.79 0.80 0.79 0.83 0.92
0.22 0.21 0.20 0.20 0.22 0.26 0.30 0.33 0.38 0.38 0.40 0.39 0.38 0.40 0.39 0.36 0.29 0.28 0.29 0.29 0.28 0.26 0.26 0.29 0.29 0.26 0.28 0.32 0.37 0.44 0.54 0.59 0.60 0.58 0.52 0.45 0.44 0.46 0.49 0.53 0.58 0.64 0.83
0.18 0.19 0.21 0.22 0.23 0.26 0.27 0.28 0.33 0.38 0.43 0.47 0.54 0.54 0.48 0.43 0.35 0.28 0.24 0.21 0.19 0.17 0.18 0.22 0.24 0.24 0.27 0.34 0.43 0.51 0.51 0.51 0.47 0.39 0.32 0.26 0.27 0.30 0.34 0.40 0.42 0.45 0.55
0.19 0.19 0.22 0.24 0.25 0.25 0.26 0.26 0.28 0.33 0.36 0.42 0.52 0.56 0.51 0.44 0.37 0.29 0.22 0.19 0.17 0.14 0.14 0.19 0.23 0.27 0.31 0.34 0.38 0.41 0.40 0.39 0.34 0.27 0.18 0.15 0.17 0.17 0.17 0.22 0.27 0.31 0.44
0.19 0.17 0.17 0.17 0.20 0.20 0.19 0.20 0.22 0.24 0.26 0.30 0.36 0.43 0.43 0.39 0.33 0.26 0.19 0.14 0.11 0.11 0.12 0.14 0.16 0.15 0.17 0.21 0.24 0.29 0.27 0.22 0.20 0.17 0.12 0.09 0.11 0.15 0.17 0.19 0.18 0.17 0.23
0.11 0.10 0.11 0.11 0.10 0.09 0.11 0.15 0.18 0.20 0.26 0.28 0.30 0.35 0.41 0.39 0.30 0.20 0.16 0.13 0.10 0.10 0.12 0.12 0.09 0.07 0.09 0.11 0.11 0.14 0.17 0.14 0.09 0.07 0.06 0.05 0.05 0.09 0.11 0.11 0.09 0.09 0.09
0.04 0.03 0.03 0.04 0.04 0.04 0.08 0.13 0.17 0.24 0.29 0.32 0.35 0.38 0.39 0.39 0.33 0.24 0.20 0.19 0.16 0.14 0.14 0.13 0.08 0.05 0.07 0.06 0.07 0.09 0.10 0.09 0.06 0.02 0.02 0.02 0.02 0.02 0.02 0.07 0.07 0.03 0.01
0.01 0.01 0.02 0.03 0.03 0.06 0.11 0.18 0.26 0.34 0.36 0.36 0.35 0.37 0.40 0.45 0.43 0.34 0.25 0.20 0.19 0.16 0.15 0.13 0.09 0.06 0.05 0.04 0.04 0.05 0.07 0.05 0.03 0.01 0.00 0.01 0.01 0.01 0.01 0.03 0.04 0.02 0.01
0.01 0.01 0.03 0.05 0.08 0.11 0.15 0.22 0.31 0.38 0.40 0.38 0.35 0.35 0.37 0.41 0.47 0.45 0.34 0.25 0.22 0.17 0.13 0.11 0.09 0.06 0.03 0.02 0.02 0.03 0.04 0.03 0.01 0.00 0.00 0.00 0.00 0.00 0.00 0.01 0.01 0.01 0.01
0.01 0.02 0.06 0.08 0.10 0.11 0.15 0.23 0.31 0.37 0.36 0.33 0.34 0.38 0.41 0.45 0.49 0.51 0.45 0.37 0.29 0.22 0.17 0.12 0.11 0.08 0.02 0.01 0.01 0.01 0.01 0.01 0.01 0.00 0.00 0.00 0.00 0.00 0.00 0.00 0.00 0.00 0.00
0.02 0.04 0.09 0.13 0.12 0.11 0.16 0.22 0.26 0.30 0.32 0.33 0.37 0.41 0.47 0.45 0.49 0.61 0.61 0.59 0.47 0.29 0.22 0.17 0.14 0.10 0.05 0.01 0.01 0.01 0.01 0.01 0.01 0.00 0.00 0.00 0.00 0.00 0.00 0.00 0.00 0.00 0.00
0.03 0.06 0.10 0.13 0.17 0.21 0.24 0.27 0.26 0.28 0.33 0.39 0.44 0.44 0.45 0.48 0.55 0.59 0.60 0.56 0.45 0.31 0.22 0.16 0.13 0.11 0.09 0.04 0.00 0.01 0.00 0.00 0.01 0.00 0.00 0.00 0.00 0.00 0.00 0.00 0.00 0.00 0.00
0.06 0.09 0.15 0.22 0.29 0.36 0.37 0.33 0.32 0.34 0.39 0.47 0.55 0.56 0.54 0.53 0.53 0.56 0.57 0.52 0.39 0.28 0.23 0.17 0.12 0.09 0.07 0.04 0.02 0.01 0.00 0.00 0.00 0.00 0.00 0.00 0.00 0.00 0.00 0.00 0.00 0.00 0.00
0.07 0.11 0.19 0.26 0.30 0.37 0.46 0.45 0.47 0.51 0.55 0.54 0.53 0.55 0.59 0.65 0.66 0.63 0.62 0.58 0.46 0.32 0.28 0.23 0.17 0.12 0.08 0.03 0.02 0.01 0.01 0.01 0.00 0.00 0.01 0.01 0.01 0.01 0.00 0.00 0.00 0.00 0.00
0.09 0.14 0.19 0.26 0.32 0.40 0.47 0.48 0.52 0.58 0.64 0.62 0.57 0.58 0.61 0.63 0.65 0.65 0.57 0.50 0.42 0.32 0.28 0.24 0.17 0.12 0.08 0.04 0.03 0.01 0.01 0.01 0.01 0.00 0.01 0.01 0.01 0.00 0.00 0.00 0.00 0.00 0.00